Previsão horária em Abadszalok

Hoje, 30 Setembro, Quarta-feira

Tempo Temperatura Precipitação Vento Pressão Humidade
00:00 +11°C° 0 mm 4 m/s 751 mmHg 83%
01:00 +11°C° 0 mm 4 m/s 751 mmHg 85%
02:00 +11°C° 0 mm 4 m/s 751 mmHg 86%
03:00 +11°C° 0 mm 3 m/s 750 mmHg 87%
04:00 +10°C° 0 mm 3 m/s 749 mmHg 88%
05:00 +11°C° 0 mm 3 m/s 749 mmHg 86%
06:00 +11°C° 0 mm 3 m/s 749 mmHg 84%
07:00 +11°C° 0 mm 3 m/s 749 mmHg 83%
08:00 +12°C° 0.1 mm 3 m/s 749 mmHg 82%
09:00 +12°C° 0.1 mm 3 m/s 749 mmHg 81%
10:00 +13°C° 0.1 mm 3 m/s 749 mmHg 81%
11:00 +13°C° 0.1 mm 4 m/s 748 mmHg 81%
12:00 +13°C° 0.1 mm 4 m/s 748 mmHg 82%
13:00 +13°C° 0.1 mm 5 m/s 748 mmHg 83%
14:00 +14°C° 0.2 mm 4 m/s 748 mmHg 83%
15:00 +14°C° 0.2 mm 4 m/s 747 mmHg 84%
16:00 +14°C° 0.2 mm 3 m/s 747 mmHg 84%
17:00 +14°C° 1.5 mm 3 m/s 747 mmHg 87%
18:00 +13°C° 1.5 mm 3 m/s 747 mmHg 89%
19:00 +13°C° 1.5 mm 3 m/s 747 mmHg 92%
20:00 +13°C° 0.6 mm 3 m/s 746 mmHg 91%
21:00 +13°C° 0.6 mm 4 m/s 746 mmHg 91%
22:00 +13°C° 0.6 mm 4 m/s 746 mmHg 90%
23:00 +13°C° 0.1 mm 4 m/s 746 mmHg 89%

Amanhã, 1 Outubro, Quinta-feira

Tempo Temperatura Precipitação Vento Pressão Humidade
00:00 +13°C° 0.1 mm 3 m/s 746 mmHg 89%
01:00 +13°C° 0.1 mm 3 m/s 746 mmHg 88%
02:00 +13°C° 0 mm 3 m/s 745 mmHg 89%
03:00 +14°C° 0 mm 2 m/s 745 mmHg 89%
04:00 +14°C° 0 mm 2 m/s 745 mmHg 89%
05:00 +14°C° 0.1 mm 2 m/s 745 mmHg 89%
06:00 +14°C° 0.1 mm 2 m/s 745 mmHg 89%
07:00 +14°C° 0.1 mm 2 m/s 745 mmHg 89%
08:00 +15°C° 0.1 mm 2 m/s 745 mmHg 85%
09:00 +16°C° 0.1 mm 2 m/s 745 mmHg 80%
10:00 +17°C° 0.1 mm 2 m/s 746 mmHg 76%
11:00 +17°C° 0.3 mm 2 m/s 745 mmHg 74%
12:00 +17°C° 0.3 mm 3 m/s 745 mmHg 73%
13:00 +18°C° 0.3 mm 3 m/s 745 mmHg 71%
14:00 +17°C° 0.4 mm 3 m/s 745 mmHg 73%
15:00 +17°C° 0.4 mm 3 m/s 745 mmHg 75%
16:00 +16°C° 0.4 mm 3 m/s 745 mmHg 77%
17:00 +16°C° 0.1 mm 3 m/s 746 mmHg 80%
18:00 +14°C° 0.1 mm 3 m/s 746 mmHg 83%
19:00 +14°C° 0.1 mm 3 m/s 746 mmHg 85%
20:00 +13°C° 0.1 mm 3 m/s 746 mmHg 87%
21:00 +13°C° 0.1 mm 3 m/s 746 mmHg 88%
22:00 +13°C° 0.1 mm 3 m/s 746 mmHg 90%
23:00 +13°C° 0.8 mm 3 m/s 746 mmHg 91%

Depois de amanhã, 2 Outubro, Sexta-feira

Tempo Temperatura Precipitação Vento Pressão Humidade
00:00 +13°C° 0.8 mm 4 m/s 746 mmHg 91%
01:00 +13°C° 0.8 mm 4 m/s 746 mmHg 92%
02:00 +13°C° 0.4 mm 4 m/s 746 mmHg 91%
03:00 +13°C° 0.4 mm 3 m/s 747 mmHg 91%
04:00 +13°C° 0.4 mm 3 m/s 747 mmHg 91%
05:00 +12°C° 0.1 mm 3 m/s 747 mmHg 90%
06:00 +12°C° 0.1 mm 3 m/s 747 mmHg 89%
07:00 +12°C° 0.1 mm 3 m/s 747 mmHg 89%
08:00 +14°C° 0 mm 3 m/s 747 mmHg 83%
09:00 +16°C° 0 mm 3 m/s 748 mmHg 78%
10:00 +18°C° 0 mm 3 m/s 748 mmHg 73%
11:00 +19°C° 0 mm 3 m/s 748 mmHg 70%
12:00 +20°C° 0 mm 3 m/s 748 mmHg 66%
13:00 +21°C° 0 mm 3 m/s 748 mmHg 63%
14:00 +21°C° 0.1 mm 3 m/s 748 mmHg 64%
15:00 +21°C° 0.1 mm 2 m/s 748 mmHg 65%
16:00 +21°C° 0.1 mm 2 m/s 748 mmHg 65%
17:00 +20°C° 0 mm 2 m/s 748 mmHg 67%
18:00 +19°C° 0 mm 3 m/s 748 mmHg 70%
19:00 +18°C° 0 mm 3 m/s 748 mmHg 72%
20:00 +18°C° 0 mm 3 m/s 748 mmHg 72%
21:00 +17°C° 0 mm 3 m/s 748 mmHg 73%
22:00 +17°C° 0 mm 3 m/s 748 mmHg 73%
23:00 +17°C° 0 mm 3 m/s 748 mmHg 74%

3 Outubro, Sábado

Tempo Temperatura Precipitação Vento Pressão Humidade
00:00 +16°C° 0 mm 3 m/s 748 mmHg 75%
01:00 +16°C° 0 mm 3 m/s 748 mmHg 75%
02:00 +16°C° 0 mm 3 m/s 748 mmHg 76%
03:00 +14°C° 0 mm 3 m/s 748 mmHg 76%
04:00 +14°C° 0 mm 3 m/s 748 mmHg 77%
05:00 +14°C° 0 mm 3 m/s 748 mmHg 75%
06:00 +16°C° 0 mm 3 m/s 748 mmHg 74%
07:00 +16°C° 0 mm 3 m/s 748 mmHg 73%
08:00 +18°C° 0 mm 4 m/s 748 mmHg 66%
09:00 +20°C° 0 mm 4 m/s 748 mmHg 60%
10:00 +23°C° 0 mm 5 m/s 748 mmHg 53%
11:00 +25°C° 0 mm 5 m/s 748 mmHg 50%
12:00 +26°C° 0 mm 5 m/s 748 mmHg 47%
13:00 +27°C° 0 mm 5 m/s 747 mmHg 44%
14:00 +27°C° 0 mm 5 m/s 747 mmHg 45%
15:00 +27°C° 0 mm 5 m/s 747 mmHg 47%
16:00 +27°C° 0 mm 4 m/s 747 mmHg 49%
17:00 +26°C° 0 mm 5 m/s 747 mmHg 50%
18:00 +25°C° 0 mm 5 m/s 747 mmHg 51%
19:00 +22°C° 0 mm 6 m/s 747 mmHg 52%
20:00 +22°C° 0 mm 6 m/s 747 mmHg 52%
21:00 +22°C° 0 mm 6 m/s 747 mmHg 52%
22:00 +21°C° 0 mm 6 m/s 746 mmHg 53%
23:00 +21°C° 0 mm 6 m/s 746 mmHg 53%

4 Outubro, Domingo

Tempo Temperatura Precipitação Vento Pressão Humidade
00:00 +21°C° 0 mm 6 m/s 746 mmHg 53%
01:00 +21°C° 0 mm 6 m/s 746 mmHg 53%
02:00 +20°C° 0.2 mm 5 m/s 746 mmHg 56%
03:00 +20°C° 0.2 mm 3 m/s 746 mmHg 60%
04:00 +20°C° 0.2 mm 2 m/s 746 mmHg 63%
05:00 +19°C° 0.7 mm 2 m/s 747 mmHg 71%
06:00 +18°C° 0.7 mm 2 m/s 747 mmHg 79%
07:00 +18°C° 0.7 mm 3 m/s 748 mmHg 87%
08:00 +19°C° 0.1 mm 3 m/s 748 mmHg 81%
09:00 +20°C° 0.1 mm 4 m/s 748 mmHg 74%
10:00 +21°C° 0.1 mm 5 m/s 749 mmHg 67%
11:00 +22°C° 0 mm 4 m/s 749 mmHg 61%
12:00 +23°C° 0 mm 4 m/s 749 mmHg 54%
13:00 +23°C° 0 mm 4 m/s 749 mmHg 47%
14:00 +24°C° 0 mm 3 m/s 748 mmHg 48%
15:00 +24°C° 0 mm 2 m/s 748 mmHg 49%
16:00 +24°C° 0 mm 1 m/s 748 mmHg 49%
17:00 +23°C° 0.1 mm 1 m/s 748 mmHg 53%
18:00 +22°C° 0.1 mm 1 m/s 748 mmHg 57%
19:00 +21°C° 0.1 mm 1 m/s 748 mmHg 61%
20:00 +19°C° 0.1 mm 2 m/s 747 mmHg 69%
21:00 +19°C° 0.1 mm 2 m/s 747 mmHg 76%
22:00 +18°C° 0.1 mm 3 m/s 747 mmHg 84%
23:00 +18°C° 0 mm 2 m/s 747 mmHg 85%

5 Outubro, Segunda-feira

Tempo Temperatura Precipitação Vento Pressão Humidade
00:00 +18°C° 0 mm 2 m/s 747 mmHg 87%
01:00 +18°C° 0 mm 2 m/s 746 mmHg 88%
02:00 +18°C° 0.1 mm 2 m/s 746 mmHg 89%
03:00 +18°C° 0.1 mm 2 m/s 746 mmHg 89%
04:00 +18°C° 0.1 mm 2 m/s 746 mmHg 90%
05:00 +18°C° 0 mm 2 m/s 746 mmHg 88%
06:00 +18°C° 0 mm 2 m/s 746 mmHg 86%
07:00 +18°C° 0 mm 2 m/s 746 mmHg 84%
08:00 +20°C° 0 mm 3 m/s 746 mmHg 73%
09:00 +22°C° 0 mm 3 m/s 746 mmHg 62%
10:00 +24°C° 0 mm 3 m/s 746 mmHg 51%
11:00 +25°C° 0.2 mm 5 m/s 746 mmHg 48%
12:00 +26°C° 0.2 mm 6 m/s 746 mmHg 45%
13:00 +26°C° 0.2 mm 7 m/s 745 mmHg 42%
14:00 +24°C° 0 mm 6 m/s 745 mmHg 47%
15:00 +23°C° 0 mm 5 m/s 745 mmHg 52%
16:00 +21°C° 0 mm 4 m/s 745 mmHg 58%
17:00 +20°C° 0.1 mm 4 m/s 745 mmHg 61%
18:00 +20°C° 0.1 mm 3 m/s 745 mmHg 64%
19:00 +19°C° 0.1 mm 2 m/s 746 mmHg 67%
20:00 +18°C° 0.1 mm 3 m/s 746 mmHg 70%
21:00 +17°C° 0.1 mm 3 m/s 747 mmHg 73%
22:00 +17°C° 0.1 mm 3 m/s 747 mmHg 76%
23:00 +16°C° 0 mm 3 m/s 747 mmHg 76%
Mostrar mais